Погода в Рязани

Погода в Рязани : погода сейчас, прогноз погоды и архив. Всё, что Вы хотите узнать о погоде в Рязани!

Хотите узнать прогноз погоды в Рязани? Тогда Вам сюда: Погода в Рязани

Поиск расширенной информации на нашем сайте:

Другие новости

Новости СМИ2

Главная страница сайта

Новости сайта

02.10.2013

Напоминаем, что на нашем новом сайте вы можете получить высокодетализированные прогнозы погоды по пунктам России, СНГ и мира (включающие важные для авиации метеовеличины, такие как направление и скорость ветра, видимость, явления погоды, количество и форма облачности, нижняя и верхняя граница облачности), а также ознакомиться с разнообразными материалами по авиационной метеорологии и подборкой полезных ссылок на эту тему.

Сайт Метеоцентр.Азия посвящён разработке технологий оптимизации авиаметеорологического обслуживания, включая проектирование и перспективное создание нескольких автоматизированных авиаметеорологических систем:
- система выпуска высокодетальных прогностических карт явлений погоды для нижнего воздушного пространства по России и ближнему зарубежью;
- система верификации прогнозов TAF (выпускаемых синоптиками официальных АМСГ РФ и ближнего зарубежья) и AUTOTAF (выпускаемых сайтом Метеоцентр.Азия) - выявление ошибок, онлайн-сопоставление с фактической погодой METAR, автоматическое внесение коррективов в прогнозы при резком отклонении фактической погоды от прогноза, подсчёт оправдываемости прогнозов по элементам и в целом;
- система обработки, анализа и отображения авиаметеорологической информации для применения провайдерами метеорологической информации.


Погода в Рязани - сегодня

Время (UTC), дата Ветер
(°,м/с) 
Видим.   Явления Облачность Т
(°С)
Тd
(°С)
f(%) Тe
(°С)
Pmin
(гПа)
dP
(гПа)
Po
(мм)
O2
(г/м3)
Тmin Tmax R s Состояние
почвы
03 21.01.17 250 (З) 20000 м    3/0 верхняя 
[Cs]
-6.6 -8.1 89 -8  1011  -2.2  743  308  -7.9      21  равномерный
сухой снег
100% 
06 21.01.17 260 (З) 10 км    10/0 средняя 
[As op]
-5.3 -6.5 91 -7  1009.6  -1.3  742  306           
09 21.01.17 320 (СЗ) 10 км  в посл. час снег  10/10 600 м 
[Sc]
-2.7 -4 91 -4  1009  -0.4  742  302           
12 21.01.17 320 (СЗ) 20000 м  {снег}  3/3 600 м верхняя 
[Sc|Ci fib]
-2.1 -7.8 65 -4  1008.7  -0.3  742  302           
15 21.01.17 320 (СЗ) 20000 м    8/0 верхняя 
[Cs]
-4.2 -6.8 82 -6  1010.8  743  305    -1.5  0.3     
18 21.01.17 330 (СЗ) 20000 м    3/0 средняя 
[Ac trans]
-5.3 -7.3 86 -8  1013.8  2.8  745  307           
21 21.01.17 300 (СЗ) 20000 м    ясно 
-7.6 -9.6 86 -9  1016.8  2.7  747  311           
00 22.01.17 290 (З) 20000 м    ясно 
-8.3 -10.4 85 -11  1018.5  1.6  749  312           
03 22.01.17 270 (З) 20000 м    ясно 
-10.1 -11.6 89 -12  1019.7  749  315  -10.3      21  равномерный
сухой снег
100% 
06 22.01.17 280 (З) 20000 м    5/0 средняя 
[Ac As]
-9.3 -10.8 89 -12  1019.7  0.1  749  314  -10.6         
09 22.01.17 290 (З) 4{10}  20000 м    10/10 600 м 
[Sc]
-6 -8.5 82 -9  1018.8  0.1  749  309           
12 22.01.17 290 (З) 20000 м    10/0 средняя 
[Ac cast]
-4.4 -7.7 78 -8  1016.3  -2.4  747  307           
15 22.01.17 270 (З) 20000 м  в посл. час снег  10/0 средняя 
[As trans]
-3.7 -5.6 87 -7  1014.5  -1.8  746  305    -3.7  0.0     
18 22.01.17 290 (З) 20000 м  {снег}  10/5 600 м средняя 
[Sc diur, vesp|As trans]
-2.5 -3.4 94 -5  1013.4  -0.9  745  303           
21 22.01.17 330 (СЗ) 20000 м    10/10 600 м 
[Sc diur, vesp]
-1.5 -3 89 -3  1015.2  1.9  747  303           
00 23.01.17 300 (СЗ) 20000 м    10/10 600 м 
[Sc diur, vesp]
-2.2 -4.3 85 -2  1016.3  0.9  747  304           
03 23.01.17 270 (З) 10 км  слаб. снег  10/0 средняя 
[As trans]
-2.8 -3.9 92 -2  1016.6  0.3  748  305  -4.1    0.5  22  равномерный
сухой снег
100% 
06 23.01.17 200 (Ю) 4000 м  слаб. снег  10/10 300 м 
[Ns]
-2.6 -3.1 96 -4  1016.1  -0.4  747  304           
09 23.01.17 280 (З) 10 км  {снег}  10/10 600 м 
[Sc]
+1 +0.2 94 -1  1015.4  -0.4  747  300           
12 23.01.17 270 (З) 20000 м  {ливн. осадки, снег}  10/10 300 м кучево-дожд. 
[Cb cap]
+1.1 -0.3 90 1013.7  -1.6  746  299           
15 23.01.17 250 (З) 20000 м    10/10 600 м 
[Sc]
+0.5 -0.7 92 -1  1012.6  -1.2  745  300    +1.5  0.6     
18 23.01.17 250 (З) 10 км    10/10 600 м 
[Sc]
+0.1 -1 92 -2  1010.6  -1.9  743  299           
21 23.01.17 270 (З) 10 км    10/10 300 м 
[Sc]
-0 -1.8 88 -2  1009.8  -0.8  743  299           
00 24.01.17 270 (З) 10 км  {ливн. осадки}  10/10 300 м кучево-дожд. 
[Cb cap]
-0.8 -2.1 91 -3  1008.9  -1  742  300           
03 24.01.17 270 (З) 10 км    10/10 300 м 
[Sc]
-1.4 -2.7 91 -3  1007.6  -1.4  741  300  -1.5    0.0  22  равномерный
сухой снег
100% 
Время (UTC), дата Ветер
(°,м/с) 
Видим.   Явления Облачность Т
(°С)
Тd
(°С)
f(%) Тe
(°С)
Pmin
(гПа)
dP
(гПа)
Po
(мм)
O2
(г/м3)
Тmin Tmax R s Состояние
почвы

Для получения пояснительной информации подведите курсор к названию столбца.

ПОГОДА в Рязани - архив

Всё, что Вы хотите узнать о погоде в Рязани - удобно и подробно!

Выберите нужную дату (начиная с 1 января 2015* года) и нажмите кнопку "Найти".
Будут отображены архивные сводки погоды по пункту Рязань, начиная с указанной даты.


Отображать данные в формате CSV (для использования в таблицах Excel)


Внимание! Наш архив погоды предназначен исключительно для личного некоммерческого использования в познавательных целях. Если Вам необходимы официальные справки о состоянии погоды (для производственных, юридических, коммерческих и т.п. целей), обращайтесь в органы Росгидромета.

*Примечание: данная дата относится к архиву по метеостанциям СССР (Россия, СНГ, Балтия).
Архив по метеостанциям Зарубежной Европы и Азии (кроме Китая) хранится 10 дней, по другим регионам земного шара (Китай, Африка, Америка, Австралия, Океания) - 1 день.

Рязань - район местоположения метеостанции


Название, широта, долгота, высота метеостанции:
Рязань 54.6°ш. 39.7°д. 158 м над ур. моря [Российская Федерация]

Дополнительная информация

В oтличие oт бoльшинства пoгoдных сайтoв мы публикуем пoдрoбную метеoинфoрмацию в детальнoм прoфессиoнальнoм фoрмате.

Характеристики температуры и влажнoсти вoздуха измеряются на высoте 2 м в тени вдали oт зданий и деревьев.
Скoрoсть ветра измеряется на высoте 10 м (на урoвне рoста челoвека скoрoсть ветра ниже в 1.5-2 раза). Если метеoстанция нахoдится в гoрoде или в лесу, тo скoрoсть ветра занижена на 2-4 м/с пo сравнению с oткрытым местoм. Скoрoсть ветра над акватoриями крупных рек и oзёр, а также на вершинах хoлмoв на 2-5 м/с выше, чем в oбычных услoвиях.
Атмoсфернoе давление в разных тoчках местнoсти мoжет значительнo oтличаться oт давления на метеoстанции, в зависимoсти oт услoвий рельефа (при пoдъёме на 10 м давление пoнижается примернo на 1 мм рт.ст.).